Theta_e
339 342 345 345 344 346 344 345 345 347 347 348 348 348 347 347 346 347 347 348 348 345 344 342 341 340 340 340 339 339 338 338 338 339 340 341 340 340 339 342 340 336 339
342 340 344 345 345 345 343 343 345 346 346 347 347 346 345 344 344 345 347 347 346 343 341 340 340 339 339 338 337 337 336 336 339 339 340 340 340 338 338 340 340 337 337
340 339 339 345 346 343 342 343 345 346 346 346 345 345 343 342 342 344 345 345 345 341 339 339 339 338 338 338 337 337 336 336 338 338 338 332 332 338 340 338 339 336 336
338 337 337 343 346 343 342 343 345 344 343 342 342 342 341 342 343 342 344 345 344 341 338 337 338 337 337 337 337 336 335 335 337 337 331 330 331 338 339 337 336 336 337
338 337 340 343 345 343 342 342 342 344 343 343 340 339 340 342 341 340 341 343 342 339 337 337 337 336 335 335 334 334 334 335 336 333 331 330 333 336 337 336 334 335 335
338 336 341 344 344 343 342 342 341 341 341 341 339 341 339 339 339 339 341 340 339 338 337 335 335 335 334 334 333 334 334 335 333 332 330 333 333 336 334 333 332 332 334
338 336 340 342 343 343 342 342 341 341 341 341 339 340 338 339 340 337 338 338 338 335 335 334 334 333 332 332 332 332 332 332 332 332 329 327 331 334 333 331 330 330 329
337 337 338 336 339 341 341 342 341 341 340 340 341 341 339 339 338 337 336 335 336 335 333 333 332 331 331 329 329 329 329 329 329 329 327 327 332 332 330 329 329 328 329
338 337 336 338 336 336 337 337 340 341 340 339 341 339 337 336 336 335 335 334 333 334 333 332 331 329 328 327 326 326 327 327 326 327 326 327 331 330 329 329 328 327 328
337 337 336 336 336 335 336 333 335 336 335 335 334 332 331 331 331 331 331 333 333 332 331 330 329 328 326 325 325 325 325 326 327 327 326 326 331 330 329 328 327 326 326
334 337 336 336 336 334 334 332 331 330 330 330 330 328 328 332 331 331 328 331 330 330 329 327 326 324 324 324 324 323 324 326 326 326 327 330 329 329 329 327 326 325 324
331 333 334 336 336 336 331 334 335 335 332 331 331 332 332 333 332 330 326 326 327 327 327 326 323 323 324 325 325 324 324 324 324 325 325 328 328 327 326 325 324 324 324
330 333 333 334 337 336 334 333 333 333 333 331 331 331 332 331 331 331 329 328 328 323 326 327 326 326 326 325 324 324 324 324 323 324 322 323 327 328 326 324 324 324 324
329 331 332 333 334 334 335 335 334 331 331 330 330 331 331 331 331 330 328 329 329 328 327 327 326 326 325 324 324 323 323 323 323 323 319 318 320 323 325 327 327 325 326
329 330 332 335 334 333 334 335 335 333 330 330 330 330 330 330 329 329 328 327 327 327 327 326 326 325 325 324 323 323 322 323 323 323 324 316 318 320 323 324 326 328 329
331 330 331 332 335 333 334 332 334 334 333 330 329 329 329 330 329 328 328 327 326 326 325 326 325 324 324 324 323 323 323 323 323 323 323 323 320 319 320 322 324 326 327
332 332 331 331 333 334 333 334 334 333 333 332 331 330 329 329 329 329 328 327 327 326 325 324 324 324 323 323 323 323 323 323 323 322 323 324 323 318 317 319 321 323 324
330 331 331 331 332 333 332 333 333 333 333 333 332 331 329 329 330 330 329 329 329 327 326 325 324 323 323 323 322 323 323 324 323 323 323 323 323 321 321 318 317 318 319
331 332 332 333 332 333 333 332 333 333 333 332 333 332 330 329 330 330 330 330 330 328 326 326 325 324 323 324 323 322 323 324 324 322 321 322 322 321 322 317 315 313 316
332 333 334 336 334 334 334 333 333 332 333 334 333 332 332 330 330 329 328 328 327 324 323 324 324 326 322 321 319 319 323 324 324 323 321 319 320 319 318 318 319 314 315
331 332 333 333 334 334 333 330 328 328 330 331 332 333 332 331 329 329 329 327 325 322 323 322 323 322 323 318 318 321 323 324 320 320 320 318 318 317 315 316 317 317 315
329 331 331 331 333 334 334 333 331 328 331 333 335 334 333 332 331 329 327 326 325 322 322 321 319 318 320 319 319 318 315 318 318 317 317 315 314 316 316 315 313 312 311
328 330 331 332 333 334 335 334 333 333 333 331 332 332 332 332 331 329 328 325 324 325 322 321 319 318 317 317 320 318 309 309 312 315 315 316 316 316 315 311 309 309 309
327 331 331 332 333 334 335 333 330 329 327 330 332 332 333 332 332 331 329 327 325 325 323 323 321 320 319 319 317 315 313 311 308 305 314 311 313 312 312 309 307 307 306
326 328 331 331 332 334 335 334 333 329 331 333 332 332 332 333 332 332 331 330 328 328 326 327 321 322 322 320 315 311 310 309 308 306 304 309 307 310 311 309 307 304 303
322 328 330 330 330 332 333 334 333 332 331 331 331 330 331 331 331 332 331 331 331 330 329 326 326 324 322 320 315 312 309 306 305 304 302 303 303 304 306 307 304 302 301
Wind_Speed
11 10 6 9 10 11 11 11 11 10 13 15 16 17 18 18 18 17 17 18 19 20 20 19 19 19 19 19 19 19 18 17 16 17 18 20 21 21 21 19 16 18 21
14 10 6 9 9 13 12 11 11 13 15 16 16 17 18 17 17 17 15 17 18 19 18 19 19 19 19 19 18 18 17 14 12 10 17 19 19 20 20 20 19 19 20
14 11 10 8 13 12 11 11 10 13 15 16 17 16 16 15 15 17 16 15 17 18 18 18 19 19 18 18 18 18 16 14 12 15 11 11 15 18 20 18 19 20 19
13 11 12 8 12 12 10 10 10 13 14 14 14 15 14 15 15 16 17 14 17 18 17 17 18 18 18 18 17 16 13 11 11 12 10 9 13 18 20 21 21 20 20
12 12 11 9 14 13 11 11 11 12 12 13 14 13 14 14 15 15 15 16 16 17 16 17 17 17 17 16 15 14 11 11 9 17 11 10 11 16 20 20 19 19 17
13 13 11 10 13 12 11 11 11 11 11 12 12 11 12 14 17 16 14 16 16 16 16 16 16 16 16 15 15 13 12 12 10 11 12 14 12 17 18 17 17 16 16
13 13 12 9 12 11 11 11 11 11 11 11 12 13 13 12 14 14 15 16 15 15 15 15 16 16 15 15 14 12 12 15 13 9 11 11 12 17 17 16 16 16 16
13 12 13 9 9 9 8 9 10 10 11 10 12 12 13 12 14 15 15 15 14 14 14 14 14 14 14 14 13 12 11 11 11 9 11 10 11 15 16 15 14 15 14
13 12 12 12 10 7 8 8 9 11 12 11 11 14 14 11 14 13 13 13 12 13 13 13 13 13 13 13 12 10 10 12 9 8 11 8 11 13 14 14 14 13 13
12 12 12 12 11 10 9 7 9 11 12 11 12 12 13 12 12 9 12 11 12 12 12 11 11 11 11 11 9 4 5 8 8 10 9 7 10 12 13 12 12 11 11
11 11 11 12 11 10 10 8 8 9 9 10 9 9 11 8 7 9 11 10 11 11 10 9 8 5 6 8 5 4 9 5 6 7 6 10 9 10 10 10 10 10 10
13 11 9 11 10 10 8 10 9 8 7 6 7 6 4 8 7 8 7 8 8 7 7 7 4 2 5 3 3 3 4 4 5 5 5 9 7 8 7 7 8 7 7
14 11 10 7 11 9 8 7 5 5 4 5 6 5 5 6 7 6 5 5 5 5 3 4 3 4 4 3 3 4 3 3 3 3 5 6 6 6 5 4 4 4 4
16 15 13 10 6 8 6 5 7 5 5 5 6 6 5 4 5 5 3 4 3 1 3 1 2 2 3 3 2 2 3 2 2 1 5 3 3 3 4 5 6 5 4
15 16 16 15 11 8 8 7 6 6 6 6 6 7 6 5 5 5 4 3 3 3 3 3 1 1 1 1 1 2 1 1 1 1 0 6 2 3 5 5 6 8 10
16 15 16 15 14 11 11 8 6 6 7 6 6 6 6 5 4 4 4 4 3 3 2 2 1 1 1 1 2 2 3 3 3 3 2 2 6 3 5 6 7 8 10
14 14 15 15 14 14 13 11 9 6 6 7 6 8 9 6 6 6 5 4 4 3 3 3 3 3 3 3 4 3 3 4 4 4 3 3 1 6 1 6 8 9 9
15 14 13 12 14 14 13 10 8 8 7 7 7 7 10 10 8 7 5 5 4 4 4 3 3 3 3 3 3 3 3 4 5 5 4 3 2 3 1 2 5 8 9
18 16 16 16 16 15 14 10 9 9 8 8 8 8 11 10 10 7 5 4 6 4 3 3 3 4 3 3 3 4 4 3 4 3 4 3 3 2 3 7 4 7 9
18 17 17 15 16 15 10 9 7 7 7 7 7 8 10 9 10 8 6 6 4 4 4 2 4 3 1 3 5 5 4 4 2 3 2 1 1 3 4 4 3 5 11
18 18 18 17 17 12 10 9 9 9 8 8 8 12 12 10 11 10 7 7 7 6 6 5 3 5 3 2 4 5 4 3 1 1 2 1 3 4 6 3 4 4 4
20 19 19 19 18 15 10 10 8 9 10 9 8 10 11 12 11 9 8 8 8 5 6 6 5 2 2 3 3 1 3 3 3 3 2 2 4 3 5 5 8 8 7
19 19 18 18 17 16 15 10 9 8 8 8 9 8 10 11 11 10 10 8 9 8 7 8 7 7 4 3 6 2 0 3 2 2 2 2 3 4 4 7 7 6 7
18 16 17 16 17 15 17 13 15 11 9 9 9 8 9 12 12 11 10 9 8 6 7 7 6 6 4 4 1 1 2 0 2 2 0 3 3 5 5 4 6 6 8
15 16 15 16 16 15 15 15 12 14 10 9 9 11 11 10 12 10 10 10 9 7 8 8 6 8 6 5 3 2 2 2 2 2 3 1 2 3 4 5 6 7 8
12 13 14 16 16 16 15 17 17 16 14 10 10 8 7 8 7 10 10 10 9 8 7 6 7 8 7 6 3 4 4 3 3 2 2 2 1 1 1 4 7 5 4
Wind_Direction
112 113 111 95 100 100 92 78 72 90 88 86 86 83 78 74 73 72 74 71 70 71 70 67 66 63 63 64 65 65 64 62 62 74 69 61 64 59 51 36 61 65 59
111 114 104 96 98 104 99 89 83 89 90 87 83 82 79 77 76 75 80 78 73 70 69 67 66 65 64 64 64 64 62 51 32 59 90 75 57 57 53 54 58 65 60
121 119 123 89 103 100 104 95 80 82 81 86 87 82 80 76 75 74 73 79 81 77 75 71 69 68 67 67 65 63 55 39 17 46 55 73 61 59 61 65 64 58 54
123 120 125 105 113 104 97 85 91 93 88 90 84 88 85 79 77 79 75 79 82 78 71 69 68 67 65 64 62 59 49 27 358 91 54 46 68 67 66 61 55 51 60
125 116 117 114 116 110 101 84 78 81 97 92 92 90 95 90 77 67 66 70 75 74 72 70 66 63 61 60 59 56 37 1 344 66 68 49 71 69 63 57 57 55 52
128 119 125 115 117 113 109 104 92 87 86 93 97 94 89 73 81 73 70 76 73 73 72 70 65 64 63 62 58 50 25 357 65 73 61 61 59 64 61 58 58 57 55
133 125 136 122 121 117 116 114 110 103 98 109 104 97 92 77 79 78 74 74 76 75 74 71 70 67 66 61 55 43 12 351 63 64 69 62 58 64 59 56 56 57 59
132 138 134 124 115 115 106 116 120 110 92 90 112 101 100 87 84 78 71 67 67 75 74 72 70 67 63 58 52 33 5 346 95 80 68 63 55 64 62 58 57 59 57
141 141 140 142 131 115 107 93 118 99 87 77 103 101 83 78 77 71 72 75 76 78 78 76 73 69 64 57 50 31 4 347 69 58 65 59 59 58 63 60 62 61 60
153 152 152 147 159 153 144 96 94 101 95 83 87 95 97 91 98 109 106 77 77 78 77 75 75 74 73 64 57 28 324 305 69 82 66 59 56 59 63 62 61 53 50
168 151 159 157 158 149 142 124 111 101 108 113 115 129 160 127 118 106 70 87 88 83 77 73 72 78 105 98 74 330 310 55 64 71 70 16 59 60 67 59 55 51 51
175 167 169 169 160 154 147 159 153 143 159 136 146 171 132 114 92 93 98 97 98 103 104 105 111 236 245 61 102 239 59 63 64 74 72 17 56 57 63 59 45 41 39
179 169 178 199 167 171 157 169 159 171 152 152 149 153 144 125 149 165 146 165 157 205 151 167 137 65 57 30 46 53 66 65 72 83 81 37 26 27 36 40 32 11 353
185 176 182 181 182 183 169 184 168 167 167 168 165 164 163 166 157 148 148 143 173 168 138 127 101 77 82 74 40 51 53 36 49 74 125 102 6 353 349 347 352 319 311
191 182 178 185 179 186 206 180 186 173 184 179 171 178 184 170 165 162 155 174 159 172 178 167 137 83 92 27 3 344 349 337 303 286 318 160 209 319 332 332 331 332 332
200 190 181 201 179 185 191 193 213 195 186 182 181 178 204 183 172 171 172 173 175 196 178 203 213 219 230 190 225 252 272 270 259 270 277 196 194 243 305 322 326 328 331
213 194 191 194 195 188 204 186 200 205 196 192 193 183 185 196 187 191 187 180 175 181 196 202 208 224 244 217 239 239 253 259 273 272 273 291 225 195 259 320 327 331 337
208 201 202 194 201 190 207 195 203 200 198 196 199 190 192 192 194 201 196 199 178 180 202 217 226 240 245 254 265 260 233 239 254 271 274 281 315 319 247 156 352 350 355
198 202 194 205 201 196 205 202 207 202 208 211 202 198 195 196 199 202 203 202 175 192 202 218 237 251 262 249 254 273 263 264 270 261 270 289 299 285 354 80 53 56 34
201 199 202 198 199 197 194 205 207 195 214 217 210 204 199 197 196 201 204 202 185 186 203 221 242 244 298 290 294 279 263 250 254 274 275 147 76 48 50 40 28 91 63
199 201 202 197 198 193 193 192 203 202 214 209 217 213 201 202 201 203 202 195 195 201 203 203 226 232 228 224 282 259 225 208 225 166 110 66 120 82 59 53 41 25 56
201 204 203 202 198 195 192 193 194 202 214 213 209 209 211 203 204 204 195 197 194 192 201 201 187 184 237 174 266 355 294 161 143 155 176 85 72 112 82 58 49 51 53
206 201 204 205 200 199 199 192 196 203 209 206 211 209 215 210 204 199 204 194 195 200 200 199 193 205 206 182 226 267 26 251 325 91 133 195 79 72 81 60 73 77 75
209 210 206 206 206 204 197 198 202 208 198 207 209 209 204 214 206 201 211 208 202 202 209 204 194 200 197 220 130 222 126 4 214 309 22 82 72 58 73 102 95 79 65
201 204 206 206 206 205 202 204 202 211 215 210 212 207 208 205 212 205 204 211 212 204 214 211 189 205 197 207 189 148 195 183 218 200 271 150 61 89 83 83 97 77 66
204 197 198 205 208 204 202 207 213 208 215 209 207 205 206 203 202 200 206 213 211 216 203 206 204 201 203 197 168 172 167 170 180 168 185 236 207 70 64 104 92 83 72